• MPC Preparation (Info)

  • MPEC 2022-P34 : 2022 OG6

    The following Minor Planet Electronic Circular may be linked-to from your own Web pages, but must not otherwise be redistributed electronically.

    A form allowing access to any MPEC is at the bottom of this page.


    Read MPEC 2022-P33 Read MPEC 2022-P35


    M.P.E.C. 2022-P34                                Issued 2022 August 3, 00:40 UT
    
         The Minor Planet Electronic Circulars contain information on unusual
             minor planets and routine data on comets.  They are published
        on behalf of Division F of the International Astronomical Union by the
              Minor Planet Center, Smithsonian Astrophysical Observatory,
                              Cambridge, MA 02138, U.S.A.
    
                 Prepared using the Tamkin Foundation Computer Network
    
                                  MPC@CFA.HARVARD.EDU
                URL https://www.minorplanetcenter.net/    ISSN 1523-6714
    
                                    2022 OG6                                 
    
    
    Observations:
         K22O06G* C2022 07 26.48524322 56 13.918-36 38 52.77         21.66wUEP034F52
         K22O06G  C2022 07 26.49470822 56 15.721-36 38 57.62         21.41wUEP034F52
         K22O06G  C2022 07 26.50425322 56 17.550-36 39 02.40         21.39wUEP034F52
         K22O06G ^C2022 07 27.52315522 59 46.284-36 46 56.72         20.95GVEP034568
         K22O06G ^C2022 07 27.52512122 59 46.665-36 46 57.59         20.90GVEP034568
         K22O06G ^C2022 07 27.52610022 59 46.854-36 46 58.07         20.89GVEP034568
         K22O06G ^C2022 07 29.51414223 06 38.388-37 00 59.00         20.97GVEP034568
         K22O06G ^C2022 07 29.51512123 06 38.582-37 00 59.37         20.95GVEP034568
         K22O06G ^C2022 07 29.51610123 06 38.771-37 00 59.78         20.96GVEP034568
         K22O06G ^C2022 08 02.51861423 20 38.217-37 22 43.84         20.80GVEP034568
         K22O06G ^C2022 08 02.51959323 20 38.410-37 22 44.17         20.92GVEP034568
         K22O06G ^C2022 08 02.52058023 20 38.599-37 22 44.38         20.93GVEP034568
    
    Observer details:
    568 Mauna Kea.  Observers R. Wainscoat, A. Acohido, T. Burdullis, C.
        Cunningham, H. Flewelling, L. Wells.  Measurers R. Weryk, R. Wainscoat.
        3.6-m Canada-France-Hawaii Telescope + CCD.
    F52 Pan-STARRS 2, Haleakala.  Observers J. Bulger, T. Lowe, A. Schultz, I.
        Smith.  Measurers K. Chambers, S. Chastel, T. de Boer, J. Fairlamb, H.
        Gao, M. Huber, C.-C. Lin, E. Magnier, Y. Ramanjooloo, R. Wainscoat, R.
        Weryk.  1.8-m Ritchey-Chretien + CCD.
    
    Orbital elements:
    2022 OG6                                                 Earth MOID = 0.2428 AU
    Epoch 2022 Aug. 9.0 TT = JDT 2459800.5                  Veres                   
    M 353.97467              (2000.0)            P               Q                  
    n   0.22371954     Peri.  288.15527     +0.95916677     +0.26293606             
    a   2.6874069      Node    56.72104     -0.18851808     +0.86902823             
    e   0.5490325      Incl.    7.16198     -0.21085551     +0.41911163             
    P   4.41           H   21.89          G   0.15           U   8                  
    Residuals in seconds of arc
    220726 F52  0.1+  0.1+    220727 568  0.0   0.0     220729 568  0.0   0.0
    220726 F52  0.2-  0.0     220727 568  0.0   0.0     220802 568  0.0   0.0
    220726 F52  0.2-  0.1+    220729 568  0.0   0.0     220802 568  0.0   0.0
    220727 568  0.0   0.0     220729 568  0.0   0.0     220802 568  0.0   0.0
    
    Ephemeris:
    2022 OG6                 a,e,i = 2.69, 0.55, 7                   q = 1.2119
    Date    TT    R. A. (2000) Decl.     Delta      r    Elong.  Phase     V
    2022 07 04    21 47 03.2 -32 43 48   0.4642  1.4049   140.2    27.6    22.2
    ...
    2022 07 19    22 31 26.4 -35 29 05   0.3712  1.3295   142.3    27.9    21.6
    ...
    2022 07 27    22 57 58.4 -36 42 35   0.3336  1.2954   142.2    28.7    21.3
    ...
    2022 08 02    23 18 48.3 -37 20 04   0.3106  1.2731   141.6    29.7    21.2
    2022 08 03    23 22 19.4 -37 24 17   0.3072  1.2697   141.5    29.8    21.1
    2022 08 04    23 25 50.9 -37 27 52   0.3039  1.2663   141.4    30.0    21.1
    ...
    2022 08 10    23 46 58.7 -37 34 00   0.2863  1.2482   140.6    31.0    21.0
    ...
    2022 08 18    00 14 08.3 -36 56 07   0.2684  1.2295   139.8    32.1    20.8
    ...
    2022 09 02    00 55 57.9 -33 10 28   0.2501  1.2124   140.4    32.0    20.7
    
    M. P. C. Staff               (C) Copyright 2022 MPC           M.P.E.C. 2022-P34
    


    Read MPEC 2022-P33 Read MPEC 2022-P35


    MPEC number:

    Enter an MPEC number in one of the following forms:

    • 1997-B01 (the full form)
    • J97B01 (the packed version of the full form)
    • B01 (the abbreviated form)